• MPC Preparation (Info)

  • MPEC 2002-A28 : 2001 XN254

    The following Minor Planet Electronic Circular may be linked-to from your own Web pages, but must not otherwise be redistributed electronically.

    A form allowing access to any MPEC is at the bottom of this page.


    Read MPEC 2002-A27 Read MPEC 2002-A29


    M.P.E.C. 2002-A28                                Issued 2002 Jan. 8, 21:40 UT
    
         The Minor Planet Electronic Circulars contain information on unusual
             minor planets and routine data on comets.  They are published
       on behalf of Commission 20 of the International Astronomical Union by the
              Minor Planet Center, Smithsonian Astrophysical Observatory,
                              Cambridge, MA 02138, U.S.A.
    
                 Prepared using the Tamkin Foundation Computer Network
    
                                  MPC@CFA.HARVARD.EDU
              URL http://cfa-www.harvard.edu/iau/mpc.html  ISSN 1523-6714
    
                                      2001 XN254
    
    Observations:
         K01XP4N  C2001 11 16.48254 07 04 21.27 +23 06 13.0          20.1 V      691
         K01XP4N  C2001 11 16.50532 07 04 22.15 +23 06 09.9          20.4 V      691
         K01XP4N  C2001 11 16.52816 07 04 23.01 +23 06 07.0          20.3 V      691
         K01XP4N* C2001 12 09.46829 07 11 14.53 +22 18 16.1                      568
         K01XP4N  C2001 12 09.52376 07 11 13.70 +22 18 09.5                      568
         K01XP4N  C2001 12 09.55544 07 11 13.19 +22 18 05.3                      568
         K01XP4N  C2001 12 10.36314 07 11 04.76 +22 16 23.5          18.0        704
         K01XP4N  C2001 12 10.37812 07 11 04.53 +22 16 22.5          18.7        704
         K01XP4N  C2001 12 10.39310 07 11 04.21 +22 16 19.6          18.9        704
         K01XP4N  C2001 12 10.40809 07 11 03.97 +22 16 18.2          18.8        704
         K01XP4N  C2001 12 13.39667 07 10 15.03 +22 10 12.9          18.2        644
         K01XP4N  C2001 12 13.46833 07 10 13.19 +22 10 03.7          18.2        644
         K01XP4N  C2001 12 13.53153 07 10 11.60 +22 09 54.9          18.2        644
         K01XP4N  C2001 12 14.37466 07 09 53.29 +22 08 13.2          18.0        704
         K01XP4N  C2001 12 14.38986 07 09 52.84 +22 08 11.4          18.4        704
         K01XP4N  C2001 12 14.40506 07 09 52.39 +22 08 09.2          18.2        704
         K01XP4N  C2001 12 14.42027 07 09 51.94 +22 08 07.7          18.1        704
         K01XP4N  C2001 12 14.43548 07 09 51.50 +22 08 05.2          18.3        704
         K01XP4N  C2001 12 17.37415 07 08 28.80 +22 02 01.5          17.8        704
         K01XP4N  C2001 12 17.38936 07 08 28.23 +22 01 59.8          18.2        704
         K01XP4N  C2001 12 17.40457 07 08 27.64 +22 01 58.2          18.5        704
         K01XP4N  C2001 12 17.41980 07 08 27.06 +22 01 56.1          18.2        704
         K01XP4N  C2001 12 17.43502 07 08 26.48 +22 01 53.8          18.4        704
         K01XP4N  C2001 12 17.66505 07 08 18.31 +22 01 26.1                      568
         K01XP4N  C2001 12 19.38605 07 07 16.75 +21 57 49.8          18.1        704
         K01XP4N  C2001 12 19.40348 07 07 15.96 +21 57 47.2          18.3        704
         K01XP4N  C2001 12 19.42468 07 07 15.02 +21 57 44.1          18.4        704
         K01XP4N  C2001 12 19.43990 07 07 14.37 +21 57 41.9          18.2        704
         K01XP4N  C2001 12 19.45511 07 07 13.67 +21 57 39.2          18.0        704
         K01XP4N  C2001 12 20.45154 07 06 33.17 +21 55 37.0          18.1        704
         K01XP4N  C2001 12 20.46694 07 06 32.54 +21 55 30.7          18.4        704
         K01XP4N  C2001 12 20.48226 07 06 31.78 +21 55 27.1          18.5        704
         K01XP4N  C2001 12 20.51301 07 06 30.36 +21 55 22.9          18.4        704
         K01XP4N  C2001 12 20.54009 07 06 29.72 +21 55 24.2          17.6 R      568
         K01XP4N  C2001 12 20.55623 07 06 28.92 +21 55 21.9          17.6 R      568
         K01XP4N  C2001 12 21.29508 07 05 57.55 +21 53 43.5          17.5        704
         K01XP4N  C2001 12 21.29547 07 05 57.49 +21 53 44.0          17.6        704
         K01XP4N  C2001 12 21.31010 07 05 56.76 +21 53 41.2          18.3        704
         K01XP4N  C2001 12 21.31049 07 05 56.75 +21 53 42.3          18.5        704
         K01XP4N  C2001 12 21.32513 07 05 56.00 +21 53 39.6          18.2        704
         K01XP4N  C2001 12 21.32551 07 05 55.95 +21 53 40.7          17.8        704
         K01XP4N  C2001 12 21.34049 07 05 55.21 +21 53 37.5          18.0        704
         K01XP4N  C2001 12 21.34087 07 05 55.23 +21 53 38.4          17.8        704
         K01XP4N  C2001 12 21.35554 07 05 54.47 +21 53 35.8          18.4        704
         K01XP4N  C2001 12 21.35593 07 05 54.45 +21 53 36.6          17.6        704
         K01XP4N  C2002 01 08.45086 06 44 26.34 +21 04 33.6          16.5 R      568
         K01XP4N  C2002 01 08.45280 06 44 26.14 +21 04 33.2          16.5 R      568
    
    Observer details:
    568 Mauna Kea.  Observers S. S. Sheppard, D. C. Jewitt, J. Kleyna, D. Tholen.
        Measurer S. S. Sheppard.  3.6-m Canada-France-Hawaii Telescope + CCD and
        2.2-m University of Hawaii reflector + CCD.
    644 Palomar Mountain/NEAT.  Observers E. F. Helin, S. Pravdo, K. Lawrence,
        M. Hicks, E. Hovland, T. Bickler, J. Schroeder, L. Scherr, R. Thicksten,
        A. Deetz.  1.2-m Schmidt + CCD.
    691 Steward Observatory, Kitt Peak.  Observers T. H. Bressi.  0.9-m Spacewatch
        telescope.
    704 Lincoln Laboratory ETS, New Mexico.  Observers M. Blythe, F. Shelly,
        M. Bezpalko, R. Huber, L. Manguso, S. Adams, J. Piscitelli.  Measurers
        J. Stuart, R. Sayer, J. B. Evans, H. Viggh.  1.0-m f/2.15 reflector + CCD.
    
    Orbital elements:
    2001 XN254                                                           PHA 0.034
    Epoch 2001 Oct. 18.0 TT = JDT 2452200.5                 MPC
    M 314.48894              (2000.0)            P               Q
    n   0.27953959     Peri.  274.39638     -0.99869259     +0.03854468
    a   2.3165437      Node   267.81510     -0.02209689     -0.91782179
    e   0.5615778      Incl.    1.92558     -0.04609591     -0.39511704
    P   3.53           H   17.5           G   0.15           U   5
    Residuals in seconds of arc
    011116 691  0.2-  0.3-    011214 704  0.0   0.6+    011220 704  1.3-  0.3+
    011116 691  0.1+  0.4-    011214 704  0.1-  0.1+    011220 568  0.1-  0.7-
    011116 691  0.0   0.3-    011217 704  0.9+  0.6-    011220 568  0.4-  0.7-
    011209 568  0.2-  0.0     011217 704  1.1+  0.3-    011221 704  0.2+  0.2-
    011209 568  0.3-  0.0     011217 704  0.9+  0.1+    011221 704  0.3-  0.3+
    011209 568  0.8-  0.2-    011217 704  0.9+  0.1+    011221 704  0.3-  0.7-
    011210 704  0.2+  0.4-    011217 704  0.8+  0.1-    011221 704  0.1-  0.5+
    011210 704  0.5+  0.5+    011217 568  0.2-  0.4-    011221 704  0.3-  0.4-
    011210 704  0.4-  0.6-    011219 704  0.5+  0.9+    011221 704  0.7-  0.7+
    011210 704  0.2-  0.1-    011219 704  0.2+  0.7+    011221 704  0.5-  0.5-
    011213 644  0.0   0.2-    011219 704  0.1+  0.5+    011221 704  0.1+  0.4+
    011213 644  0.1+  0.1-    011219 704  0.3+  0.5+    011221 704  0.2-  0.3-
    011213 644  0.1+  0.2-    011219 704  0.2-  0.0     011221 704  0.2-  0.6+
    011214 704  0.5+  0.2+    011220 704 (1.5-  5.1+)   020108 568  0.2+  0.4-
    011214 704  0.4+  0.3+    011220 704  0.3-  1.1+    020108 568  0.2+  0.4-
    011214 704  0.2+  0.1+    011220 704  1.0-  0.2-
    
